CAPE
0 0 0 0 0 0 0 0 4 0 3 0 0 0 0 0 0 0 0 0 0 0 0 0 0 0 0 0 0 0 0 0 0 0 0 0 0 0 1 0 0 1 0 1
0 0 0 0 0 0 0 0 0 12 3 0 0 0 0 0 0 0 0 0 0 0 0 0 0 0 0 0 0 0 2 6 0 0 0 0 0 0 1 2 0 0 1 0
0 1 1 0 0 0 0 0 0 0 0 0 0 0 0 0 0 0 0 0 0 0 0 0 0 0 0 0 3 2 2 0 1 0 0 1 1 1 1 3 2 2 1 2
0 0 0 0 0 0 0 0 0 0 0 0 0 0 0 0 0 0 0 0 0 0 0 0 0 0 0 0 3 1 0 1 1 2 0 1 1 1 2 4 2 1 2 1
0 1 0 0 0 0 0 0 0 0 0 0 0 0 0 0 0 0 0 0 0 0 0 0 0 0 0 0 6 1 1 2 2 4 3 2 2 2 2 2 1 1 1 1
0 0 0 0 0 0 0 0 0 0 0 0 0 0 0 0 0 0 0 0 0 0 0 0 0 0 0 0 1 17 1 1 0 0 0 1 1 1 1 4 2 2 0 2
2 1 0 0 0 0 0 0 0 0 0 0 0 0 0 0 0 0 0 0 0 0 0 0 5 9 0 0 1 22 0 0 0 0 0 1 3 2 2 3 3 2 2 1
0 0 0 0 0 0 0 0 0 0 0 0 0 0 0 0 0 0 0 0 0 0 1 4 12 20 0 0 0 0 2 1 0 0 1 0 1 1 2 1 2 2 2 2
0 0 0 0 0 0 0 0 0 0 0 0 0 0 0 0 0 0 0 0 0 1 8 16 28 56 20 8 0 0 1 0 0 1 0 0 1 1 2 1 2 2 3 2
0 0 0 0 0 0 0 0 0 0 0 0 0 0 0 0 0 0 0 0 0 3 4 8 16 18 46 30 3 0 0 1 1 1 0 1 1 1 1 1 2 2 1 1
0 0 0 0 0 0 0 0 0 0 0 0 0 0 0 0 0 0 0 0 0 0 1 1 4 7 18 29 14 4 2 1 0 1 1 1 1 2 1 1 0 1 1 0
0 0 0 0 0 0 0 0 0 0 0 0 0 0 0 0 0 0 0 0 0 1 4 4 6 10 14 37 21 8 0 0 0 0 1 2 2 1 0 0 0 0 0 0
0 0 0 0 0 0 0 0 0 0 0 0 0 0 0 0 1 3 0 1 2 1 0 0 2 4 1 0 22 2 0 0 1 1 1 1 2 2 0 2 1 1 0 0
0 0 0 0 0 0 0 0 0 0 0 0 0 0 1 1 2 2 0 0 0 0 0 0 0 0 0 0 1 2 0 0 0 1 0 2 3 2 2 2 2 2 2 2
0 0 0 0 0 0 0 0 0 0 0 0 0 0 1 0 0 0 0 0 0 0 0 0 0 0 0 0 0 1 0 0 1 1 1 2 2 2 1 1 2 1 3 1
0 0 0 0 0 0 0 0 0 0 0 0 0 0 0 0 0 0 1 1 2 4 1 1 0 0 0 0 0 1 0 0 0 1 1 3 2 1 1 1 1 1 2 2
0 0 0 0 1 0 0 1 0 0 0 0 0 0 0 0 0 0 1 0 0 0 0 0 0 0 0 0 0 1 1 2 0 2 1 0 1 1 0 0 1 0 1 0
0 0 0 0 2 1 0 0 0 0 0 0 0 0 0 0 0 1 0 0 1 1 0 0 0 0 0 0 0 1 1 1 1 1 0 1 1 0 0 1 1 0 0 0
9 6 3 0 0 0 0 0 0 0 0 0 0 0 0 1 0 0 0 0 1 1 1 0 0 0 1 0 1 1 1 0 1 1 0 0 1 0 2 1 0 0 0 0
0 0 0 0 0 0 0 0 0 0 0 0 0 1 1 0 0 0 0 1 1 0 0 0 0 1 1 1 0 1 0 0 1 2 1 1 1 0 1 0 0 0 0 0
1 0 0 0 0 0 0 0 0 0 0 0 1 1 0 0 0 0 1 3 0 6 3 0 0 1 1 2 0 1 0 1 0 0 1 1 1 0 1 0 0 1 0 0
1 0 0 0 0 0 1 0 2 0 0 0 0 0 0 0 1 1 0 1 1 0 1 1 1 1 1 0 1 1 1 1 0 0 1 0 0 1 2 1 0 0 0 0
1 0 0 0 0 1 1 0 1 1 1 0 0 0 1 0 0 3 1 1 0 0 0 1 0 0 0 0 0 1 0 0 0 0 0 0 1 1 1 0 0 0 0 0
1 0 0 1 1 1 2 2 1 1 0 0 0 1 1 1 1 4 2 1 0 0 1 0 0 1 0 1 1 1 0 1 0 0 0 0 0 0 0 0 0 0 0 0
0 1 0 0 1 1 0 0 0 0 0 0 1 0 0 0 1 0 1 1 1 0 1 0 0 1 1 1 1 1 0 1 0 0 0 0 0 0 0 0 0 0 0 0
2 2 1 1 0 0 1 1 1 0 0 1 1 0 0 0 1 0 2 0 0 0 0 0 1 1 0 0 0 0 0 0 0 0 0 0 0 0 0 0 0 0 0 0
1 0 1 1 2 2 1 0 0 0 0 1 1 1 0 0 1 1 0 0 0 0 0 0 0 0 0 0 0 0 0 0 0 0 0 0 0 0 0 0 1 0 1 0
CIN
0 0 0 0 0 0 -0 0 -2 0 -5 -0 0 0 0 0 0 0 0 0 0 0 0 0 0 0 0 0 0 0 0 0 -1 -0 0 0 0 0 -0 -0 0 0 0 -0
0 -1 0 0 0 0 0 0 0 -1 -6 0 0 0 0 0 0 0 0 0 0 0 0 0 0 0 0 0 -0 -0 -2 -1 -0 0 -0 0 -0 -0 0 0 0 0 0 -0
0 -2 -0 0 0 0 0 0 0 0 0 0 0 0 0 0 0 0 0 0 0 0 0 0 0 0 0 0 -2 -1 -0 -1 0 -0 0 -0 -0 -0 0 0 0 0 0 0
0 0 0 0 0 0 0 0 0 0 0 0 0 0 0 0 0 0 0 0 0 0 0 0 0 0 0 0 -3 -0 -0 -0 -0 -0 -0 -0 -0 -0 0 0 0 0 0 0
0 0 0 0 0 0 0 0 0 0 0 0 0 0 0 0 0 0 0 0 0 0 0 0 0 0 0 0 -1 -0 -0 0 -0 -0 -0 -0 0 -0 0 0 0 0 0 0
0 0 0 0 0 0 0 0 0 0 0 0 0 0 0 0 0 0 0 0 0 0 0 0 0 -0 0 0 -1 -62 0 0 0 0 0 -0 0 0 -0 0 0 0 0 0
0 -0 0 0 0 0 0 0 0 0 0 0 0 0 0 0 0 0 0 0 0 0 0 -0 -5 -2 0 0 0 -69 0 0 0 0 0 0 0 0 0 0 0 0 0 0
0 0 0 0 0 0 0 0 0 0 0 0 0 0 0 0 0 0 0 0 0 0 -3 -4 -6 -3 0 0 0 0 0 0 0 0 0 0 0 0 0 0 0 0 0 0
0 0 0 0 0 0 0 0 0 0 0 0 0 0 0 0 0 0 0 0 0 -2 -4 -4 -4 -2 -3 -20 0 0 0 0 0 0 0 0 0 0 0 0 0 0 0 0
0 0 0 0 0 0 0 0 0 0 0 0 0 0 0 0 0 0 0 0 0 -2 -2 -4 -4 -3 -4 -20 -46 0 0 0 0 0 0 0 0 0 0 0 0 0 0 0
0 0 0 0 0 0 0 0 0 0 0 0 0 0 0 0 0 0 0 0 0 0 -1 -3 -2 -3 -3 -3 -44 -0 0 0 0 0 0 0 0 0 0 0 0 0 0 0
0 0 0 0 0 0 0 0 0 0 0 0 0 0 0 0 0 0 0 0 0 -2 -2 -2 -2 -2 -3 -3 -1 -1 0 0 0 0 0 0 0 0 0 0 0 0 0 0
0 0 0 0 0 0 0 0 0 0 0 0 0 0 0 0 -1 -2 -0 -1 -2 -0 -0 -1 -1 -2 -1 -1 -1 -1 0 -0 -0 0 0 0 0 0 0 0 0 0 0 0
0 0 0 0 0 0 0 0 0 0 0 0 0 -0 -1 -1 -1 -1 0 0 0 0 0 0 0 0 0 0 -0 -2 -0 0 0 0 -0 0 0 0 0 0 0 0 0 0
0 0 0 0 0 0 0 0 0 0 0 -0 -1 0 -0 0 -0 -0 -1 0 0 0 0 0 0 0 0 0 0 -0 -0 -1 -0 -0 0 0 0 0 0 0 0 0 0 0
0 0 0 0 0 0 0 0 0 0 -0 -1 0 0 0 0 0 -0 -1 -2 -1 -1 -7 -10 0 0 0 0 0 0 -0 -0 0 0 0 0 0 0 0 0 0 0 0 0
0 0 0 -0 -2 0 -0 -1 0 0 0 0 0 0 0 -0 -0 -0 -1 0 0 0 0 0 0 0 0 0 0 0 0 0 0 0 0 -0 0 0 0 0 0 0 -0 0
0 -1 -0 -2 -2 -1 0 0 0 0 0 0 0 0 0 0 0 -0 0 0 0 0 0 0 0 0 0 0 0 0 0 0 0 0 0 0 0 0 0 0 -0 -0 0 0
-2 -2 -1 -0 0 0 0 0 0 0 0 0 0 0 -0 0 0 0 0 -0 0 0 0 -0 0 0 0 0 0 0 0 0 0 0 0 0 0 0 0 0 0 0 0 0
-1 -0 0 0 0 0 0 0 0 0 0 0 -0 -0 -0 0 0 0 0 0 0 0 -0 0 -0 0 -0 -0 0 0 0 0 0 0 0 0 0 0 0 0 0 -1 0 -0
-1 -1 0 0 0 0 0 0 0 0 -0 0 0 0 0 -0 0 0 -0 -0 -0 -0 -1 -2 0 0 -0 0 0 0 0 0 0 0 0 0 0 0 0 0 0 -1 0 0
0 0 0 0 0 0 -0 0 -0 -0 0 -0 0 -0 0 0 0 0 -0 -0 -0 0 0 0 0 0 0 0 0 0 0 0 0 0 0 0 0 0 0 0 -1 0 0 0
-0 0 0 -0 0 0 0 0 0 0 0 0 0 0 0 0 -0 -0 0 -0 -0 -1 0 -0 -0 0 0 0 0 0 0 0 0 0 0 0 0 0 0 0 -1 0 0 0
-0 -0 0 0 0 0 0 0 0 0 0 0 -1 0 0 0 0 -0 -0 -1 -0 -0 0 0 0 0 0 0 0 0 -0 0 0 0 0 0 0 0 0 0 0 0 0 0
0 0 -0 0 0 0 0 0 -0 -0 0 0 -0 -0 -0 -0 -0 0 0 -0 -0 0 0 0 0 0 0 0 0 -0 -1 -0 -0 -0 0 0 0 0 0 0 0 0 0 0
0 0 -0 -0 -0 -1 -0 -0 -0 0 -0 0 -0 -1 -0 0 -0 -0 -0 -0 -0 -0 0 -0 0 -1 0 0 0 -1 0 -0 0 0 0 0 0 0 0 0 0 0 0 -0
-0 -0 -0 -0 -0 -0 -0 -0 -0 0 0 0 0 0 0 -0 -0 -0 -0 -1 0 0 0 0 -0 -0 -0 -1 -0 -0 -1 0 0 0 0 0 0 0 0 0 0 0 -1 -1
Wind_Speed
42 39 23 28 29 32 37 38 39 40 37 28 24 21 19 16 16 18 19 20 22 23 27 30 30 32 33 33 34 35 37 36 34 30 31 31 29 29 28 29 30 30 30 29
37 32 35 36 36 33 35 38 40 38 37 26 21 17 18 16 16 18 20 21 22 24 25 27 29 31 34 33 34 36 36 34 31 31 28 27 26 27 27 27 26 23 23 26
39 34 33 42 42 40 37 34 31 36 31 28 21 19 17 17 18 20 22 22 23 23 25 27 28 30 33 34 34 35 35 32 29 27 25 24 24 24 23 21 19 20 22 22
34 25 40 36 28 24 30 31 27 28 26 24 23 16 17 18 21 22 21 20 21 23 24 24 27 29 33 34 34 34 33 30 26 25 24 23 22 21 17 18 19 19 19 21
34 37 36 32 26 23 23 30 24 25 21 17 16 15 18 21 21 20 19 19 21 22 22 25 27 30 33 34 32 33 32 29 26 24 24 20 14 14 17 18 18 18 18 19
30 39 43 34 22 18 17 36 22 20 18 17 14 22 26 19 15 16 18 19 20 21 22 26 28 30 34 35 33 31 29 26 23 21 17 14 15 15 16 16 16 16 17 18
36 39 39 24 17 13 28 29 15 15 17 17 19 19 14 10 14 18 19 21 21 22 25 28 28 30 34 33 32 29 25 22 19 15 23 19 13 14 14 15 16 17 17 17
36 42 48 16 16 26 22 17 14 13 12 13 14 15 17 17 20 21 22 23 24 27 29 30 29 30 32 32 30 28 22 19 17 20 22 16 13 13 12 15 17 17 16 16
33 34 25 13 20 16 14 13 11 8 10 12 15 17 18 21 22 22 24 25 26 28 29 28 27 26 30 31 27 25 22 21 21 19 17 14 14 14 16 19 17 16 14 14
26 26 19 16 14 10 11 9 10 11 12 14 18 20 21 22 23 24 24 24 25 26 27 28 28 28 27 25 24 23 23 25 20 20 17 15 14 19 21 19 19 17 14 13
30 23 20 20 17 13 11 11 13 14 17 20 20 20 21 23 24 24 24 23 23 24 26 27 26 25 24 22 20 22 27 26 22 19 16 14 19 21 21 20 18 15 14 11
36 22 23 19 14 13 13 14 17 20 18 17 17 20 20 21 22 22 22 23 24 24 24 24 23 23 23 19 18 19 22 27 22 18 18 17 16 20 19 19 18 17 14 12
23 17 18 12 10 10 15 16 14 15 16 18 18 20 21 22 22 24 24 24 25 25 27 24 22 21 20 22 17 16 17 22 22 18 18 18 18 19 20 18 16 16 15 12
9 9 10 9 11 11 12 13 13 14 14 16 17 19 21 23 23 24 24 23 24 25 24 23 19 16 18 20 17 14 13 16 18 18 17 18 20 20 20 18 16 16 14 12
9 7 8 8 7 8 9 9 10 11 13 15 18 20 21 23 24 24 24 23 22 22 22 18 15 15 17 17 16 11 11 12 14 15 17 16 19 20 20 18 17 15 12 11
9 9 8 9 8 6 5 8 11 13 16 17 18 20 22 23 24 25 25 23 23 24 21 17 16 16 15 14 15 14 11 11 12 14 18 17 16 18 19 18 15 14 11 9
10 11 8 6 4 5 8 11 12 15 16 18 19 21 23 24 22 23 24 27 30 31 27 21 15 15 9 9 8 8 10 11 13 16 18 13 14 16 15 14 13 13 12 7
5 5 4 5 5 6 8 10 13 15 17 19 20 22 22 22 19 22 26 30 31 23 19 15 10 7 7 8 6 5 6 11 16 23 20 17 17 16 16 12 10 11 10 7
4 4 5 4 5 7 10 12 14 17 20 21 21 20 18 17 21 23 27 31 30 22 21 16 10 6 6 6 5 5 5 8 16 23 25 21 20 20 19 14 13 12 9 7
4 3 3 4 7 9 11 15 17 19 19 19 19 19 20 18 22 24 26 29 22 18 22 19 16 13 11 7 3 2 2 5 12 22 25 22 19 18 18 16 15 12 10 8
4 3 5 7 10 14 16 17 19 20 21 21 22 22 22 20 24 24 25 25 22 20 20 20 15 11 11 8 5 2 1 3 20 18 22 19 13 15 15 15 16 14 11 9
5 7 9 12 14 16 18 19 21 20 23 21 23 23 22 21 22 24 23 24 24 24 22 19 15 11 8 7 5 2 1 3 11 18 19 15 12 11 14 14 14 14 12 10
11 12 13 13 15 17 19 20 20 22 21 21 22 24 23 23 22 25 25 20 23 23 25 23 20 15 7 5 5 4 7 5 11 21 17 18 15 13 13 13 14 14 12 11
11 12 13 15 16 17 18 18 19 20 19 21 23 24 25 25 23 21 20 24 25 24 24 23 23 15 8 7 7 8 11 15 4 16 17 15 15 14 14 14 13 13 13 12
13 13 14 15 16 17 17 17 18 18 20 21 23 23 23 23 22 23 23 23 23 22 22 22 19 12 9 8 8 10 12 16 19 15 3 8 11 11 12 11 9 9 8 8
12 13 14 14 15 15 15 16 18 18 19 22 22 22 23 22 22 21 21 20 20 20 19 18 17 13 9 8 9 9 9 11 13 13 10 4 2 4 5 6 5 4 4 6
12 11 12 12 13 14 14 14 15 17 18 20 21 21 22 21 21 20 20 19 17 16 16 16 16 14 11 9 8 8 7 6 6 5 4 4 3 3 3 3 4 4 5 5
Wind_Direction
262 269 275 270 258 257 255 261 266 277 274 277 272 266 262 267 277 286 291 297 302 307 311 315 317 316 317 318 317 318 317 317 316 316 316 316 316 318 320 322 324 326 327 332
266 264 268 272 267 265 262 264 268 271 273 286 289 264 263 264 282 288 294 299 304 310 313 315 317 318 319 318 318 320 319 318 318 317 318 318 319 319 321 323 326 333 336 335
265 265 271 272 267 265 265 264 267 268 274 279 279 271 262 274 284 290 295 300 305 310 312 317 320 321 320 320 320 320 320 318 318 319 318 319 320 321 324 332 334 332 332 338
268 269 266 277 285 270 262 265 265 269 275 282 285 268 269 280 288 290 296 301 307 311 315 320 324 325 325 322 321 320 320 319 319 317 317 318 320 322 332 333 330 329 334 341
263 264 278 282 281 279 268 273 264 270 269 276 284 284 280 285 290 292 298 305 309 313 317 320 323 325 325 324 322 321 319 319 317 316 316 321 328 332 328 326 328 330 342 349
265 267 270 286 281 283 285 279 275 263 268 258 266 279 284 276 286 297 302 307 311 316 319 319 320 323 324 324 324 321 322 319 321 323 329 326 317 324 326 326 333 339 340 342
261 269 278 288 284 286 278 287 296 275 269 262 267 281 300 295 295 303 308 311 312 314 314 314 317 320 322 324 325 324 322 321 327 328 301 301 324 324 326 329 332 325 328 336
263 267 272 267 277 276 286 293 300 295 287 276 275 284 292 296 299 305 309 311 311 310 310 314 316 319 319 322 326 329 328 326 321 309 298 305 311 318 324 321 317 320 331 341
261 273 287 255 288 287 290 292 299 297 295 286 285 290 294 298 302 306 309 310 312 311 311 314 317 318 317 321 325 329 329 324 314 302 304 301 301 304 303 295 309 323 337 348
266 273 271 262 280 280 282 287 293 299 300 298 295 296 298 301 302 304 307 310 310 312 313 313 316 317 320 323 324 324 319 310 316 298 297 292 296 283 285 296 304 317 335 348
267 269 270 269 266 264 274 282 290 298 297 296 298 301 303 304 305 308 310 312 314 313 312 314 317 320 323 324 323 319 306 301 304 304 296 288 280 280 284 295 305 321 330 352
268 254 274 251 254 258 268 280 288 291 297 303 307 307 307 308 310 312 313 314 314 313 314 316 319 321 323 325 320 316 309 294 296 299 297 283 285 282 292 299 305 313 330 344
269 247 273 245 244 257 272 283 294 299 303 305 309 310 312 313 314 314 313 313 315 317 317 316 318 320 323 323 319 314 312 299 291 289 288 284 280 281 285 299 310 316 320 337
248 226 257 244 251 268 281 291 301 304 307 311 315 317 317 316 316 316 315 314 313 315 315 314 317 318 325 325 318 306 302 303 291 287 285 282 277 280 283 292 302 309 321 327
242 245 250 258 267 277 290 295 302 308 314 316 318 318 319 318 318 319 319 320 320 317 315 317 310 309 319 319 316 297 289 293 287 285 279 283 279 277 281 288 296 305 316 329
243 259 250 256 268 276 289 301 307 312 314 318 320 321 324 324 321 318 316 318 316 315 319 319 317 317 316 316 314 303 277 274 274 278 270 276 283 277 279 284 293 301 310 316
236 243 247 252 257 280 295 308 315 318 321 322 325 326 325 324 325 319 316 311 304 305 312 316 312 317 308 310 305 302 283 264 262 267 270 277 280 281 284 289 294 300 303 313
225 235 246 256 272 293 312 319 323 324 326 328 328 325 324 326 326 321 313 304 302 319 322 322 317 309 310 314 302 296 269 264 257 262 268 271 268 278 279 291 297 297 304 304
245 252 263 279 301 312 318 322 324 323 321 321 324 329 332 333 324 319 311 301 304 321 324 332 332 326 323 320 308 290 266 257 258 260 261 267 265 261 269 276 285 291 299 302
241 245 268 297 316 319 324 316 315 316 323 328 331 333 334 334 323 319 311 304 317 323 321 326 329 336 341 341 333 313 265 246 254 259 259 262 263 263 265 274 280 286 293 299
243 262 287 304 312 302 301 305 312 312 315 322 325 327 330 334 322 319 312 310 318 323 324 325 335 343 347 354 1 7 240 252 263 264 258 257 264 260 265 272 277 282 287 297
271 286 291 295 298 299 299 304 307 320 315 326 321 321 327 331 327 318 316 309 311 311 317 326 339 348 354 0 10 47 147 255 272 261 259 258 259 267 271 278 280 284 287 292
272 277 283 289 294 298 302 311 320 318 324 327 324 317 321 325 327 318 311 319 312 312 308 317 325 343 6 33 49 79 126 143 269 253 261 257 265 271 278 282 284 287 290 290
274 278 286 292 299 305 312 321 326 329 330 327 320 312 315 318 324 327 324 310 305 306 307 312 316 344 28 54 67 95 120 134 124 257 260 267 273 275 278 283 287 290 291 290
280 286 294 301 308 314 320 327 331 333 329 325 319 314 316 319 322 321 319 310 307 307 309 314 326 355 30 48 68 95 114 134 139 131 292 286 285 285 286 290 297 301 301 298
288 292 300 308 317 325 332 331 329 331 330 318 321 320 319 320 323 324 318 316 313 312 316 320 330 354 25 40 63 77 96 115 128 129 127 100 30 331 315 310 316 324 321 311
290 297 307 317 320 329 332 341 340 336 332 324 320 320 321 328 330 324 318 318 318 321 322 325 330 341 3 16 33 52 61 71 85 80 67 50 38 24 13 1 352 341 335 333